• In Germany
  • List of Countries
  • For 7 days
  • Water Temperature
  • Satellite Maps
  • Weather Map
  • Weather Widgets
  • user-avatar
    Login

    Hourly Weather Porto Velho

    Today, 23 June, Saturday

    Time Temperature Precipitation Wind Pressure Humidity
    00:00 +23°C° 0 mm 0 mps 752 mmHg 74%
    01:00 +23°C° 0 mm 0 mps 752 mmHg 75%
    02:00 +22°C° 0 mm 0 mps 752 mmHg 76%
    03:00 +22°C° 0 mm 0 mps 752 mmHg 78%
    04:00 +22°C° 0 mm 0 mps 752 mmHg 79%
    05:00 +22°C° 0 mm 0 mps 751 mmHg 80%
    06:00 +22°C° 0 mm 0 mps 752 mmHg 78%
    07:00 +23°C° 0 mm 0 mps 752 mmHg 76%
    08:00 +24°C° 0 mm 0 mps 753 mmHg 73%
    09:00 +27°C° 0 mm 0 mps 753 mmHg 64%
    10:00 +31°C° 0 mm 1 mps 753 mmHg 55%
    11:00 +34°C° 0 mm 1 mps 753 mmHg 46%
    12:00 +34°C° 0 mm 1 mps 752 mmHg 43%
    13:00 +35°C° 0 mm 1 mps 752 mmHg 40%
    14:00 +36°C° 0 mm 1 mps 751 mmHg 37%
    15:00 +35°C° 0 mm 1 mps 750 mmHg 41%
    16:00 +34°C° 0 mm 1 mps 750 mmHg 45%
    17:00 +32°C° 0 mm 0 mps 750 mmHg 49%
    18:00 +30°C° 0 mm 0 mps 750 mmHg 53%
    19:00 +27°C° 0 mm 0 mps 750 mmHg 58%
    20:00 +25°C° 0 mm 0 mps 751 mmHg 63%
    21:00 +25°C° 0 mm 0 mps 751 mmHg 65%
    22:00 +24°C° 0 mm 0 mps 752 mmHg 67%
    23:00 +24°C° 0 mm 0 mps 752 mmHg 69%

    Tomorrow, 24 June, Sunday

    Time Temperature Precipitation Wind Pressure Humidity
    00:00 +23°C° 0 mm 0 mps 752 mmHg 71%
    01:00 +23°C° 0 mm 0 mps 752 mmHg 72%
    02:00 +22°C° 0 mm 0 mps 752 mmHg 74%
    03:00 +22°C° 0 mm 0 mps 752 mmHg 75%
    04:00 +21°C° 0 mm 0 mps 752 mmHg 77%
    05:00 +21°C° 0 mm 0 mps 752 mmHg 78%
    06:00 +22°C° 0 mm 0 mps 752 mmHg 75%
    07:00 +22°C° 0 mm 0 mps 753 mmHg 73%
    08:00 +23°C° 0 mm 0 mps 754 mmHg 70%
    09:00 +26°C° 0 mm 0 mps 754 mmHg 60%
    10:00 +29°C° 0 mm 0 mps 754 mmHg 50%
    11:00 +34°C° 0 mm 1 mps 754 mmHg 39%
    12:00 +35°C° 0 mm 1 mps 753 mmHg 36%
    13:00 +36°C° 0 mm 1 mps 752 mmHg 33%
    14:00 +37°C° 0 mm 1 mps 751 mmHg 30%
    15:00 +36°C° 0 mm 1 mps 751 mmHg 34%
    16:00 +35°C° 0 mm 1 mps 750 mmHg 39%
    17:00 +34°C° 0 mm 1 mps 749 mmHg 44%
    18:00 +31°C° 0 mm 1 mps 750 mmHg 49%
    19:00 +27°C° 0 mm 0 mps 750 mmHg 53%
    20:00 +25°C° 0 mm 0 mps 751 mmHg 58%
    21:00 +24°C° 0 mm 0 mps 751 mmHg 60%
    22:00 +23°C° 0 mm 0 mps 752 mmHg 62%
    23:00 +23°C° 0 mm 0 mps 752 mmHg 64%

    Day after tomorrow, 25 June, Monday

    Time Temperature Precipitation Wind Pressure Humidity
    00:00 +22°C° 0 mm 0 mps 752 mmHg 66%
    01:00 +22°C° 0 mm 0 mps 752 mmHg 68%
    02:00 +21°C° 0 mm 0 mps 752 mmHg 71%
    03:00 +21°C° 0 mm 0 mps 752 mmHg 72%
    04:00 +21°C° 0 mm 0 mps 752 mmHg 73%
    05:00 +21°C° 0 mm 0 mps 752 mmHg 75%
    06:00 +21°C° 0 mm 0 mps 752 mmHg 73%
    07:00 +22°C° 0 mm 0 mps 753 mmHg 72%
    08:00 +23°C° 0 mm 0 mps 753 mmHg 70%
    09:00 +28°C° 0 mm 1 mps 753 mmHg 60%
    10:00 +31°C° 0 mm 1 mps 753 mmHg 49%
    11:00 +35°C° 0 mm 1 mps 753 mmHg 39%
    12:00 +35°C° 0 mm 1 mps 752 mmHg 35%
    13:00 +36°C° 0 mm 1 mps 751 mmHg 32%
    14:00 +37°C° 0 mm 1 mps 750 mmHg 29%
    15:00 +36°C° 0 mm 1 mps 750 mmHg 34%
    16:00 +35°C° 0 mm 1 mps 749 mmHg 39%
    17:00 +32°C° 0 mm 0 mps 749 mmHg 44%
    18:00 +30°C° 0 mm 0 mps 749 mmHg 49%
    19:00 +28°C° 0 mm 0 mps 750 mmHg 54%
    20:00 +25°C° 0 mm 0 mps 750 mmHg 58%
    21:00 +25°C° 0 mm 0 mps 751 mmHg 61%
    22:00 +24°C° 0 mm 0 mps 751 mmHg 63%
    23:00 +23°C° 0 mm 0 mps 752 mmHg 65%

    26 June, Tuesday

    Time Temperature Precipitation Wind Pressure Humidity
    00:00 +23°C° 0 mm 0 mps 751 mmHg 67%
    01:00 +22°C° 0 mm 0 mps 751 mmHg 69%
    02:00 +22°C° 0 mm 0 mps 751 mmHg 71%
    03:00 +21°C° 0 mm 0 mps 751 mmHg 72%
    04:00 +21°C° 0 mm 0 mps 751 mmHg 74%
    05:00 +21°C° 0 mm 0 mps 751 mmHg 75%
    06:00 +22°C° 0 mm 0 mps 752 mmHg 73%
    07:00 +23°C° 0 mm 0 mps 753 mmHg 71%
    08:00 +24°C° 0 mm 0 mps 753 mmHg 69%
    09:00 +26°C° 0 mm 0 mps 753 mmHg 61%
    10:00 +31°C° 0 mm 1 mps 753 mmHg 53%
    11:00 +33°C° 0 mm 1 mps 753 mmHg 45%
    12:00 +34°C° 0 mm 1 mps 753 mmHg 41%
    13:00 +35°C° 0 mm 1 mps 752 mmHg 38%
    14:00 +36°C° 0 mm 1 mps 751 mmHg 35%
    15:00 +35°C° 0 mm 1 mps 751 mmHg 39%
    16:00 +34°C° 0 mm 1 mps 750 mmHg 43%
    17:00 +33°C° 0 mm 1 mps 750 mmHg 47%
    18:00 +31°C° 0 mm 1 mps 750 mmHg 52%
    19:00 +29°C° 0 mm 1 mps 751 mmHg 57%
    20:00 +27°C° 0 mm 1 mps 751 mmHg 63%
    21:00 +24°C° 0 mm 0 mps 751 mmHg 64%
    22:00 +24°C° 0 mm 0 mps 751 mmHg 66%
    23:00 +23°C° 0 mm 0 mps 752 mmHg 68%

    27 June, Wednesday

    Time Temperature Precipitation Wind Pressure Humidity
    00:00 +23°C° 0 mm 0 mps 751 mmHg 69%
    01:00 +22°C° 0 mm 0 mps 751 mmHg 71%
    02:00 +22°C° 0 mm 0 mps 751 mmHg 72%
    03:00 +21°C° 0 mm 0 mps 751 mmHg 74%
    04:00 +21°C° 0 mm 0 mps 751 mmHg 76%
    05:00 +21°C° 0 mm 0 mps 751 mmHg 78%
    06:00 +22°C° 0 mm 0 mps 752 mmHg 76%
    07:00 +23°C° 0 mm 0 mps 752 mmHg 73%
    08:00 +24°C° 0 mm 0 mps 753 mmHg 71%
    09:00 +27°C° 0 mm 0 mps 753 mmHg 60%
    10:00 +30°C° 0 mm 0 mps 753 mmHg 50%
    11:00 +34°C° 0 mm 0 mps 753 mmHg 39%
    12:00 +34°C° 0 mm 0 mps 752 mmHg 36%
    13:00 +37°C° 0 mm 1 mps 751 mmHg 33%
    14:00 +37°C° 0 mm 1 mps 750 mmHg 29%
    15:00 +36°C° 0 mm 1 mps 750 mmHg 34%
    16:00 +35°C° 0 mm 1 mps 750 mmHg 38%
    17:00 +32°C° 0 mm 0 mps 750 mmHg 43%
    18:00 +30°C° 0 mm 0 mps 750 mmHg 47%
    19:00 +28°C° 0 mm 0 mps 750 mmHg 52%
    20:00 +26°C° 0 mm 0 mps 751 mmHg 56%
    21:00 +25°C° 0 mm 0 mps 751 mmHg 58%
    22:00 +24°C° 0 mm 0 mps 752 mmHg 60%
    23:00 +24°C° 0 mm 0 mps 752 mmHg 62%

    28 June, Thursday

    Time Temperature Precipitation Wind Pressure Humidity
    00:00 +23°C° 0 mm 0 mps 752 mmHg 63%
    01:00 +23°C° 0 mm 0 mps 752 mmHg 64%
    02:00 +22°C° 0 mm 0 mps 751 mmHg 66%
    03:00 +22°C° 0 mm 0 mps 752 mmHg 67%
    04:00 +21°C° 0 mm 0 mps 752 mmHg 69%
    05:00 +21°C° 0 mm 0 mps 752 mmHg 70%
    06:00 +22°C° 0 mm 0 mps 752 mmHg 69%
    07:00 +23°C° 0 mm 0 mps 753 mmHg 67%
    08:00 +24°C° 0 mm 0 mps 753 mmHg 66%
    09:00 +29°C° 0 mm 1 mps 753 mmHg 56%
    10:00 +32°C° 0 mm 1 mps 753 mmHg 46%
    11:00 +35°C° 0 mm 1 mps 753 mmHg 37%
    12:00 +36°C° 0 mm 1 mps 752 mmHg 34%
    13:00 +37°C° 0 mm 1 mps 751 mmHg 31%
    14:00 +37°C° 0 mm 1 mps 750 mmHg 28%
    15:00 +36°C° 0 mm 1 mps 750 mmHg 32%
    16:00 +35°C° 0 mm 1 mps 750 mmHg 36%
    17:00 +32°C° 0 mm 0 mps 749 mmHg 41%
    18:00 +30°C° 0 mm 0 mps 749 mmHg 45%
    19:00 +28°C° 0 mm 0 mps 750 mmHg 49%
    20:00 +25°C° 0 mm 0 mps 750 mmHg 54%
    21:00 +25°C° 0 mm 0 mps 750 mmHg 55%
    22:00 +24°C° 0 mm 0 mps 751 mmHg 56%
    23:00 +24°C° 0 mm 0 mps 751 mmHg 58%
    Show more